Content
SEND FEEDBACK

Daily
Averages
Monthly
Summary
United States of America

COLUMBUS - OHIO STATE UNIVERSITY, OHIO


Home > North America > United States > Ohio
Elevation: 760 feet     Latitude: 40 00N     Longitude: 083 01W

WEATHER
 
SELECT A DAY
Number of Records: 208,634;   Date Range: 1/1/95 - 10/20/14
 
SHARE

PRINT THIS DATA

[ ← Previous Day ]
WEATHER ALMANAC - JANUARY 31, 2013
[ Next Day → ]
[ °C ]   °F
Weather ElementAverageHighLow
Temperature26 °F33.8 °F (1:17 am)19.9 °F (11:51 pm)
Dewpoint19.3 °F26.6 °F (1:17 am)10 °F (9:51 am)
Humidity76.3 %93 % (4:02 pm)53 % (9:51 am)
Barometer29.83 in29.95 in (11:51 pm)29.49 in (1:17 am)
Wind Speed17.6 mph31.1 mph (4:51 am)
Wind Gust41.4 mph (2:51 am)
Weather ElementAverage
Visibility5 mi
Wind DirectionW (269 °)

Weather ElementTotal
Precipitation0.19 in
Heating Degree Days38.2 (Base 65)
Averaged from 58 records on January 31, 2013
WEATHER CONDITIONS BREAKOUT
WIND DIRECTION BREAKOUT
WEATHER BY HOUR - JANUARY 31, 2013
[ °C ]   °F
Local TimeTemperatureDewpointHumidityBarometerVisibilityWind DirectionWind SpeedGust SpeedPrecipitationEventsConditions
1:17 AM33.8 °F26.6 °F75 %29.49 in9.0 miWest (280°)23.0 mph38.0 mph0.00 inSnowLight Snow
1:51 AM33.1 °F25.0 °F72 %29.54 in10.0 miWest (270°)26.5 mph33.4 mph0.00 inOvercast
2:51 AM32.0 °F23.0 °F69 %29.58 in10.0 miWest (270°)23.0 mph41.4 mphOvercast
3:51 AM30.9 °F19.9 °F64 %29.62 in10.0 miWest (280°)25.3 mph40.3 mph0.00 inOvercast
4:51 AM28.9 °F21.0 °F72 %29.65 in5.0 miWest (270°)31.1 mph40.3 mph0.00 inSnowLight Snow
5:51 AM27.0 °F19.0 °F72 %29.68 in3.0 miWest (260°)25.3 mph33.4 mph0.00 inSnowLight Snow
6:07 AM26.6 °F19.4 °F74 %29.68 in2.5 miWest (270°)25.3 mph32.2 mph0.00 inSnowLight Snow
6:18 AM26.6 °F17.6 °F69 %29.69 in7.0 miWest (270°)27.6 mph35.7 mph0.00 inSnowLight Snow
6:32 AM26.6 °F15.8 °F64 %29.70 in10.0 miWest (270°)26.5 mph35.7 mph0.00 inOvercast
6:51 AM26.1 °F16.0 °F66 %29.72 in10.0 miWest (270°)23.0 mph34.5 mph0.00 inOvercast
7:51 AM26.1 °F15.1 °F63 %29.75 in10.0 miWest (260°)24.2 mph40.3 mph0.00 inOvercast
8:51 AM26.1 °F12.9 °F58 %29.78 in10.0 miWest (260°)28.8 mph41.4 mph0.00 inOvercast
9:51 AM25.0 °F10.0 °F53 %29.83 in10.0 miWest (270°)27.6 mph36.8 mph0.00 inOvercast
10:51 AM26.1 °F12.9 °F58 %29.86 in10.0 miWest (260°)24.2 mph32.2 mphOvercast
11:51 AM25.0 °F10.9 °F55 %29.88 in10.0 miWest (260°)28.8 mph40.3 mph0.00 inOvercast
12:51 PM26.1 °F12.9 °F58 %29.87 in7.0 miWest (260°)20.7 mph26.5 mph0.00 inOvercast
1:31 PM26.6 °F15.8 °F64 %29.84 in2.5 miWest (260°)21.9 mph28.8 mph0.00 inSnowLight Snow
1:49 PM26.6 °F19.4 °F74 %29.84 in1.8 miWSW (240°)17.3 mph0.00 inSnowLight Snow
1:51 PM26.1 °F19.0 °F75 %29.87 in1.8 miSW (230°)15.0 mph24.2 mph0.00 inSnowLight Snow
1:55 PM26.6 °F19.4 °F74 %29.84 in3.0 miSW (230°)15.0 mph0.00 inSnowLight Snow
2:24 PM26.6 °F19.4 °F74 %29.84 in6.0 miWSW (250°)16.1 mph23.0 mph0.00 inSnowLight Snow
2:46 PM28.4 °F17.6 °F64 %29.83 in6.0 miWSW (250°)19.6 mph25.3 mph0.00 inSnowLight Snow
2:51 PM28.0 °F16.0 °F61 %29.86 in6.0 miWSW (240°)21.9 mph31.1 mph0.00 inSnowLight Snow
3:20 PM26.6 °F19.4 °F74 %29.84 in3.0 miWSW (240°)20.7 mph32.2 mph0.00 inSnowLight Snow
3:40 PM26.6 °F19.4 °F74 %29.85 in2.0 miWSW (240°)24.2 mph32.2 mph0.00 inSnowLight Snow
3:44 PM26.6 °F21.2 °F80 %29.85 in1.0 miWest (260°)21.9 mph32.2 mph0.00 inSnowLight Snow
3:47 PM26.6 °F21.2 °F80 %29.85 in0.5 miWest (270°)18.4 mph32.2 mph0.00 inSnowSnow
3:51 PM26.1 °F21.9 °F84 %29.88 in0.5 miWest (280°)21.9 mph27.6 mph0.00 inFog-SnowSnow
3:58 PM24.8 °F21.2 °F86 %29.85 in0.2 miWest (280°)17.3 mph27.6 mph0.00 inFog-SnowSnow
4:02 PM24.8 °F23.0 °F93 %29.85 in0.5 miWest (280°)16.1 mph25.3 mph0.00 inFog-SnowSnow
4:09 PM24.8 °F21.2 °F86 %29.85 in9.0 miWest (260°)12.7 mph0.01 inSnowSnow
4:12 PM24.8 °F21.2 °F86 %29.85 in9.0 miWest (260°)11.5 mph0.01 inSnowLight Snow
4:22 PM26.6 °F21.2 °F80 %29.85 in1.0 miWest (270°)16.1 mph20.7 mph0.01 inSnowLight Snow
4:29 PM26.6 °F21.2 °F80 %29.86 in7.0 miWest (260°)15.0 mph23.0 mph0.01 inSnowLight Snow
4:51 PM27.0 °F21.9 °F81 %29.88 in1.5 miWNW (290°)6.9 mph0.02 inSnowLight Snow
5:08 PM26.6 °F21.2 °F80 %29.86 in0.5 miWNW (290°)11.5 mph0.00 inSnowLight Snow
5:29 PM26.6 °F23.0 °F86 %29.86 in0.5 miWest (270°)11.5 mph0.01 inSnowLight Snow
5:39 PM26.6 °F21.2 °F80 %29.86 in0.5 miWest (270°)9.2 mph0.01 inSnowLight Snow
5:42 PM24.8 °F21.2 °F86 %29.86 in7.0 miWest (270°)9.2 mph0.01 inSnowLight Snow
5:51 PM25.0 °F21.9 °F88 %29.89 in7.0 miWest (260°)8.1 mph0.03 inSnowLight Snow
6:03 PM26.6 °F21.2 °F80 %29.86 in1.5 miWest (260°)11.5 mph0.00 inSnowLight Snow
6:09 PM26.6 °F21.2 °F80 %29.86 in0.5 miWest (280°)16.1 mph20.7 mph0.00 inFog-SnowSnow
6:18 PM24.8 °F21.2 °F86 %29.86 in1.5 miWest (270°)15.0 mph0.00 inSnowLight Snow
6:26 PM24.8 °F21.2 °F86 %29.86 in8.0 miWest (270°)12.7 mph0.00 inSnowLight Snow
6:51 PM25.0 °F19.9 °F81 %29.90 in10.0 miWest (270°)11.5 mph0.01 inOvercast
7:35 PM26.6 °F19.4 °F74 %29.88 in9.0 miWest (270°)17.3 mph0.00 inSnowLight Snow
7:43 PM24.8 °F19.4 °F80 %29.88 in1.5 miWest (280°)16.1 mph0.00 inSnowLight Snow
7:51 PM25.0 °F21.0 °F85 %29.91 in0.5 miWest (280°)16.1 mph0.00 inSnowLight Snow
8:03 PM24.8 °F21.2 °F86 %29.88 in1.0 miWest (280°)9.2 mph0.01 inSnowLight Snow
8:22 PM24.8 °F21.2 °F86 %29.89 in1.0 miWest (280°)9.2 mph0.01 inSnowLight Snow
8:51 PM24.1 °F21.9 °F91 %29.92 in1.0 miWest (280°)9.2 mph0.02 inSnowLight Snow
9:06 PM24.8 °F21.2 °F86 %29.89 in6.0 miWest (270°)10.4 mph0.01 inSnowLight Snow
9:51 PM24.1 °F19.9 °F84 %29.92 in6.0 miWNW (300°)8.1 mph0.01 inSnowLight Snow
10:41 PM21.2 °F17.6 °F86 %29.89 in9.0 miWNW (300°)12.7 mph0.00 inSnowLight Snow
10:51 PM21.9 °F16.0 °F78 %29.92 in10.0 miWNW (300°)11.5 mph0.00 inOvercast
11:20 PM21.2 °F17.6 °F86 %29.89 in2.5 miNW (310°)16.1 mph21.9 mph0.00 inSnowLight Snow
11:32 PM21.2 °F15.8 °F80 %29.90 in3.0 miWNW (290°)15.0 mph0.00 inSnowLight Snow
11:51 PM19.9 °F15.1 °F81 %29.95 in4.0 miWest (280°)13.8 mph24.2 mph0.00 inSnowLight Snow
Hourly data recorded from KCMH, located miles away from Columbus - Ohio State University, Ohio







STORIES FROM OUR PARTNERS